This is the latest recevied weather packets stored in our database for station/object EA7OC-10. If no packets are shown the sender has not sent any weather packets the latest 10 day(s).
| Time | Temp. | Humidity | Pressure | Rain* | Wind** | Luminosity | Snow |
|---|---|---|---|---|---|---|---|
| 1787796466 | 24.44° C | 32% | 1014.7 hPa | - | - | - | - |
| 1787795566 | 24.44° C | 32% | 1014.9 hPa | - | - | - | - |
| 1787794666 | 24.44° C | 32% | 1014.9 hPa | - | - | - | - |
| 1787793766 | 23.89° C | 32% | 1015 hPa | - | - | - | - |
| 1787792866 | 23.89° C | 32% | 1015.1 hPa | - | - | - | - |
| 1787791965 | 23.33° C | 33% | 1015.3 hPa | - | - | - | - |
| 1787791065 | 23.33° C | 32% | 1015.5 hPa | - | - | - | - |
| 1787790165 | 22.78° C | 32% | 1015.7 hPa | - | - | - | - |
| 1787789265 | 22.78° C | 32% | 1015.8 hPa | - | - | - | - |
| 1787788365 | 22.78° C | 32% | 1015.9 hPa | - | - | - | - |
| 1787787465 | 23.33° C | 32% | 1015.8 hPa | - | - | - | - |
| 1787786565 | 23.33° C | 32% | 1015.7 hPa | - | - | - | - |
| 1787785665 | 23.89° C | 32% | 1015.8 hPa | - | - | - | - |
| 1787784765 | 23.89° C | 32% | 1015.9 hPa | - | - | - | - |
| 1787783864 | 24.44° C | 32% | 1016 hPa | - | - | - | - |
| 1787782964 | 25° C | 32% | 1016 hPa | - | - | - | - |
| 1787782064 | 25.56° C | 32% | 1015.9 hPa | - | - | - | - |
| 1787781164 | 25.56° C | 32% | 1015.9 hPa | - | - | - | - |
| 1787780264 | 26.11° C | 32% | 1015.8 hPa | - | - | - | - |
| 1787779364 | 26.11° C | 32% | 1015.7 hPa | - | - | - | - |
| 1787778464 | 26.11° C | 32% | 1015.6 hPa | - | - | - | - |
| 1787777564 | 25.56° C | 32% | 1015.6 hPa | - | - | - | - |
| 1787776659 | 25.56° C | 31% | 1015.4 hPa | - | - | - | - |
| 1787775759 | 25.56° C | 31% | 1015.3 hPa | - | - | - | - |
| 1787774859 | 26.11° C | 31% | 1015 hPa | - | - | - | - |
* Rain since midnight (hover to see other rain measurements)
** Current wind speed in m/s (hover to see current wind gust speed)